Weather History for KALO - May, 2014

Change the Weather History Date:

Sunday, May 11, 2014

  Actual Average Record
Temperature  
Mean Temperature 62 °F 59 °F  
Max Temperature 70 °F 70 °F 89 °F (1911)
Min Temperature 53 °F 47 °F 27 °F (1925)
Degree Days  
Heating Degree Days 3 7  
Month to date heating degree days 95 95  
Since 1 July heating degree days 8203 6911  
Cooling Degree Days 0 1  
Month to date cooling degree days 8 11  
Year to date cooling degree days 10 19  
Growing Degree Days 12 (Base 50)    
Moisture  
Dew Point 58 °F    
Average Humidity 78    
Maximum Humidity 93    
Minimum Humidity 62    
Precipitation  
Precipitation 0.41 in 0.14 in 1.96 in (1966)
Month to date precipitation 0.58 1.54  
Year to date precipitation 11.95 9.13  
Snow  
Snow 0.00 in 0.00 in 0.30 in (1966)
Month to date snowfall 0.0 0.0  
Since 1 July snowfall 58.0 35.3  
Snow Depth 0.00 in    
Sea Level Pressure  
Sea Level Pressure 29.83 in    
Wind  
Wind Speed 7 mph (SE)    
Max Wind Speed 26 mph    
Max Gust Speed 34 mph    
Visibility 9 miles    
Events Rain    
T = Trace of Precipitation, MM = Missing Value Source: NWS Daily Summary

Daily Weather History Graph

Daily Weather History Graph

Search for Another Location

Airport or City:

Trip Planner

Search our weather history database for the weather conditions in past years. The results will help you decide how hot, cold, wet, or windy it might be!

Date:

Astronomy

May. 11, 2014 Rise Set
Actual Time 5:51 AM CDT 8:20 PM CDT
Civil Twilight 5:20 AM CDT 8:52 PM CDT
Nautical Twilight 4:40 AM CDT 9:32 PM CDT
Astronomical Twilight 3:55 AM CDT 10:17 PM CDT
Moon 5:13 PM CDT (5/11) 4:01 AM CDT (5/11)
Length of Visible Light 15h 32m
Length of Day
14h 28m
Waxing Gibbous, 89% of the Moon is Illuminated
May 11
Waxing Gibbous
May 14
Full
May 21
Last Quarter
May 28
New
Jun 5
First Quarter

Hourly Weather History & Observations

Time (CDT) Temp. Dew Point Humidity Pressure Visibility Wind Dir Wind Speed Gust Speed Precip Events Conditions
12:54 AM 59.0 °F 46.9 °F 64% 29.82 in 10.0 mi SE 9.2 mph - N/A   Clear
1:54 AM 57.0 °F 46.9 °F 69% 29.82 in 10.0 mi SE 3.5 mph - N/A   Mostly Cloudy
2:54 AM 57.0 °F 48.0 °F 72% 29.81 in 10.0 mi SE 4.6 mph - N/A   Clear
3:54 AM 57.9 °F 48.9 °F 72% 29.82 in 10.0 mi SSE 4.6 mph - N/A   Clear
4:54 AM 53.1 °F 48.0 °F 83% 29.83 in 10.0 mi SE 5.8 mph - N/A   Clear
5:54 AM 55.0 °F 48.9 °F 80% 29.81 in 10.0 mi SSE 4.6 mph - N/A   Clear
6:54 AM 57.9 °F 52.0 °F 81% 29.83 in 10.0 mi SSE 3.5 mph - N/A   Clear
7:54 AM 59.0 °F 53.1 °F 81% 29.87 in 10.0 mi South 5.8 mph - N/A   Clear
8:54 AM 60.1 °F 55.0 °F 83% 29.86 in 10.0 mi SSE 5.8 mph - N/A   Clear
9:54 AM 62.1 °F 55.9 °F 80% 29.86 in 10.0 mi Calm Calm - N/A   Scattered Clouds
10:36 AM 63.0 °F 57.0 °F 81% 29.87 in 10.0 mi SE 3.5 mph - N/A   Overcast
10:54 AM 63.0 °F 57.0 °F 81% 29.88 in 10.0 mi Calm Calm - N/A   Overcast
11:43 AM 63.0 °F 59.0 °F 87% 29.90 in 9.0 mi South 4.6 mph - 0.00 in Rain Light Rain
11:54 AM 63.0 °F 60.1 °F 90% 29.90 in 8.0 mi South 4.6 mph - 0.01 in Rain Light Rain
12:21 PM 63.0 °F 60.1 °F 90% 29.91 in 6.0 mi South 3.5 mph - 0.01 in Rain Light Rain
12:42 PM 62.1 °F 61.0 °F 96% 29.93 in 2.5 mi WSW 4.6 mph - 0.06 in Rain Rain
12:54 PM 62.1 °F 61.0 °F 96% 29.91 in 1.5 mi Calm Calm - 0.11 in Rain Rain
1:07 PM 62.1 °F 61.0 °F 96% 29.91 in 3.0 mi SE 3.5 mph - 0.05 in Rain Light Rain
1:54 PM 63.0 °F 62.1 °F 97% 29.85 in 7.0 mi East 8.1 mph - 0.08 in   Scattered Clouds
2:02 PM 63.0 °F 62.1 °F 97% 29.86 in 7.0 mi East 6.9 mph - N/A   Mostly Cloudy
2:54 PM 66.0 °F 62.1 °F 87% 29.83 in 10.0 mi ENE 11.5 mph - N/A   Overcast
3:07 PM 66.9 °F 62.1 °F 84% 29.83 in 10.0 mi ENE 11.5 mph - N/A   Overcast
3:54 PM 69.1 °F 64.0 °F 84% 29.80 in 10.0 mi East 12.7 mph - N/A   Mostly Cloudy
4:04 PM 69.1 °F 63.0 °F 81% 29.80 in 10.0 mi East 12.7 mph - N/A   Mostly Cloudy
4:54 PM 70.0 °F 64.9 °F 84% 29.77 in 10.0 mi East 10.4 mph - 0.01 in   Mostly Cloudy
5:54 PM 70.0 °F 64.9 °F 84% 29.76 in 10.0 mi ESE 10.4 mph - N/A   Overcast
6:54 PM 69.1 °F 64.0 °F 84% 29.75 in 10.0 mi East 6.9 mph - N/A   Scattered Clouds
7:54 PM 66.9 °F 64.0 °F 90% 29.75 in 9.0 mi East 10.4 mph - N/A   Mostly Cloudy
8:54 PM 66.0 °F 63.0 °F 90% 29.75 in 10.0 mi East 9.2 mph - N/A   Clear
9:54 PM 64.9 °F 63.0 °F 93% 29.75 in 9.0 mi ESE 8.1 mph - N/A   Clear
10:54 PM 66.2 °F 62.6 °F 88% 29.74 in 10.0 mi ESE 12.7 mph - N/A   Clear
11:54 PM 66.0 °F 62.1 °F 87% 29.73 in 7.0 mi SE 11.5 mph - 0.01 in Rain Light Rain